DW8305 Weather Reports


time (UTC)temp
C
wind
direction
speed
KPH
gust
KPH
rain 1hr
cm
rain 24hr
cm
rain mn
cm
humidity
%
barometer
mb
20260506164916 8 0 1.6 4.8 0.51 2.46 2.46 95 1008.9
20260506163916 8 45 4.8 8.0 0.46 2.39 2.39 95 1008.9
20260506162916 8 0 1.6 3.2 0.36 2.29 2.29 95 1008.9
20260506161916 8 0 1.6 6.4 0.25 2.18 2.18 95 1008.9
20260506160916 8 0.0 0.0 0.18 2.08 2.08 95 1008.9
20260506155916 8 45 3.2 4.8 0.13 2.03 2.03 95 1008.8
20260506154916 8 45 6.4 9.7 0.08 1.96 1.96 95 1008.8
20260506153916 8 45 4.8 11.3 0.05 1.93 1.93 95 1008.8
20260506152936 8 45 4.8 8.0 0.05 1.93 1.93 95 1008.7
20260506151916 8 23 4.8 8.0 0.08 1.93 1.93 95 1008.8
20260506150916 8 0 3.2 4.8 0.05 1.91 1.91 95 1008.7
20260506145916 8 68 3.2 6.4 0.05 1.91 1.91 95 1008.7
20260506144916 8 23 4.8 11.3 0.05 1.88 1.88 95 1008.6
20260506143916 8 45 1.6 4.8 0.08 1.88 1.88 95 1008.5
20260506142916 8 68 6.4 14.5 0.08 1.85 1.85 95 1008.6
20260506141936 8 45 6.4 12.9 0.08 1.83 1.83 95 1008.6
20260506140916 8 45 3.2 6.4 0.08 1.83 1.83 95 1008.6
20260506135916 8 45 6.4 9.7 0.10 1.83 1.83 95 1008.6
20260506134916 8 45 4.8 11.3 0.08 1.83 1.83 95 1008.7
20260506133917 8 45 4.8 8.0 0.05 1.80 1.80 95 1008.7
20260506132916 8 68 6.4 12.9 0.05 1.78 1.78 95 1008.7
20260506131916 8 45 6.4 9.7 0.03 1.75 1.75 96 1008.6
20260506130916 8 45 8.0 14.5 0.03 1.75 1.75 96 1008.6
20260506125936 8 45 4.8 8.0 0.00 1.75 1.75 96 1008.6
20260506124916 8 45 6.4 12.9 0.03 1.75 1.75 96 1008.5
20260506123916 8 68 8.0 9.7 0.03 1.75 1.75 96 1008.5
20260506122916 8 45 4.8 11.3 0.03 1.75 1.75 96 1008.4
20260506121916 8 68 4.8 9.7 0.03 1.75 1.75 96 1008.4
20260506120936 8 68 4.8 8.0 0.03 1.75 1.75 96 1008.4
20260506115916 8 45 11.3 16.1 0.03 1.75 1.75 96 1008.2
20260506114916 8 45 4.8 8.0 0.03 1.73 1.73 96 1008.3
20260506113916 8 45 6.4 12.9 0.03 1.73 1.73 96 1008.3
20260506112916 8 68 6.4 9.7 0.05 1.73 1.73 96 1008.4
20260506111916 8 45 6.4 11.3 0.05 1.73 1.73 96 1008.4
20260506110936 8 68 9.7 14.5 0.08 1.73 1.73 96 1008.3
20260506105936 8 23 8.0 11.3 0.10 1.73 1.73 96 1008.3
20260506104916 8 90 4.8 8.0 0.08 1.70 1.70 96 1008.3
20260506103916 8 68 6.4 8.0 0.08 1.68 1.68 96 1008.3
20260506102936 8 45 8.0 9.7 0.08 1.68 1.68 96 1008.3
20260506101916 8 68 8.0 11.3 0.08 1.65 1.65 96 1008.2
20260506100936 7 45 1.6 4.8 0.08 1.65 1.65 96 1008.3
20260506095956 7 90 4.8 8.0 0.08 1.63 1.63 96 1008.3
20260506094916 7 45 3.2 6.4 0.13 1.63 1.63 96 1008.3
20260506093916 7 68 1.6 3.2 0.13 1.60 1.60 96 1008.2
20260506092916 7 90 3.2 4.8 0.15 1.60 1.60 96 1008.2
20260506091916 7 45 1.6 3.2 0.18 1.57 1.57 97 1008.2
20260506090936 7 113 3.2 4.8 0.18 1.55 1.55 97 1008.2
20260506085916 7 0.0 1.6 0.20 1.55 1.55 97 1008.2
20260506084936 7 45 4.8 9.7 0.20 1.52 1.50 97 1008.2
20260506083916 7 45 4.8 6.4 0.23 1.50 1.47 97 1008.2
20260506082916 7 68 3.2 4.8 0.23 1.45 1.45 97 1008.1
20260506081916 6 68 3.2 6.4 0.23 1.42 1.40 97 1008.1
20260506080916 6 68 4.8 6.4 0.23 1.37 1.37 97 1008.1
20260506072916 6 45 3.2 3.2 0.23 1.27 1.22 97 1007.9
20260506071916 6 68 4.8 9.7 0.18 1.22 1.17 97 1007.8
20260506070916 6 68 4.8 8.0 0.15 1.17 1.12 97 1007.8
20260506061936 6 90 1.6 3.2 0.15 1.04 0.99 97 1007.6
20260506060916 6 45 3.2 6.4 0.15 0.99 0.94 97 1007.6
20260506050916 6 68 1.6 3.2 0.23 0.84 0.79 96 1007.5
20260506044916 7 23 4.8 9.7 0.20 0.76 0.71 96 1007.5
20260506043916 7 68 3.2 8.0 0.23 0.74 0.69 96 1007.5
20260506042916 7 23 6.4 11.3 0.23 0.71 0.64 96 1007.5
20260506041916 7 0 3.2 6.4 0.23 0.66 0.61 96 1007.5
20260506040937 8 45 3.2 6.4 0.23 0.61 0.56 96 1007.5
20260506035916 8 68 1.6 1.6 0.23 0.64 0.51 96 1007.5
20260506034916 8 68 1.6 3.2 0.23 0.61 0.48 96 1007.5
20260506033936 8 0.0 1.6 0.23 0.56 0.43 96 1007.6
20260506032916 8 45 1.6 4.8 0.18 0.51 0.38 96 1007.6
20260506031916 8 0.0 3.2 0.18 0.48 0.36 96 1007.7
20260506030916 8 0.0 1.6 0.18 0.43 0.33 95 1007.7
20260506025916 8 45 1.6 3.2 0.15 0.43 0.28 95 1007.8
20260506024936 8 45 1.6 4.8 0.15 0.38 0.23 95 1007.8
20260506023916 8 23 3.2 4.8 0.13 0.36 0.23 95 1007.9
20260506022916 8 90 1.6 3.2 0.10 0.33 0.18 94 1007.9
20260506021936 8 0.0 1.6 0.08 0.30 0.15 94 1008.0
20260506020916 8 68 1.6 4.8 0.08 0.28 0.15 94 1008.0
20260506015936 8 45 1.6 3.2 0.08 0.28 0.13 94 1008.1
20260506014916 8 68 3.2 8.0 0.08 0.25 0.10 93 1008.1
20260506013916 9 45 4.8 8.0 0.10 0.25 0.10 93 1008.2
20260506012916 9 45 1.6 3.2 0.08 0.23 0.08 93 1008.2
20260506011916 9 45 3.2 4.8 0.08 0.23 0.08 92 1008.2
20260506010915 9 23 3.2 6.4 0.05 0.23 0.05 91 1008.3
20260506005916 10 45 1.6 4.8 0.05 0.23 0.05 89 1008.3
20260506004916 10 23 1.6 3.2 0.03 0.20 0.03 88 1008.4
20260506003916 10 45 1.6 3.2 0.00 0.18 0.00 87 1008.5
20260506002915 10 45 1.6 3.2 0.00 0.18 0.00 86 1008.7
20260506001916 10 90 3.2 4.8 0.00 0.18 0.00 86 1008.7
20260506000916 10 23 3.2 6.4 0.00 0.18 0.00 86 1008.8
20260505235916 10 68 4.8 9.7 0.00 0.20 0.00 86 1008.9
20260505234916 10 45 6.4 9.7 0.00 0.20 0.00 87 1009.0
20260505233916 10 23 4.8 12.9 0.00 0.20 0.00 88 1009.1
20260505232916 10 68 4.8 6.4 0.00 0.20 0.00 89 1009.1
20260505231915 11 68 3.2 6.4 0.00 0.20 0.00 90 1009.1
20260505230916 11 45 4.8 6.4 0.00 0.20 0.00 91 1009.1
20260505225916 11 68 4.8 6.4 0.00 0.25 0.00 91 1009.2
20260505224916 11 23 1.6 4.8 0.00 0.25 0.00 91 1009.3
20260505223936 11 90 4.8 8.0 0.00 0.25 0.00 91 1009.4
20260505222916 11 68 3.2 6.4 0.00 0.25 0.00 91 1009.4
20260505221916 11 45 3.2 4.8 0.00 0.25 0.00 91 1009.4
20260505220916 11 45 3.2 6.4 0.00 0.25 0.00 91 1009.4
20260505215916 11 113 3.2 6.4 0.00 0.41 0.25 91 1009.4
20260505214916 11 90 1.6 4.8 0.00 0.41 0.25 91 1009.5
20260505213916 11 45 4.8 9.7 0.00 0.41 0.25 91 1009.6
20260505212916 11 68 3.2 6.4 0.00 0.41 0.25 91 1009.8
20260505211916 11 45 6.4 8.0 0.00 0.41 0.25 91 1009.9
20260505210916 11 23 1.6 3.2 0.00 0.41 0.25 91 1009.9
20260505205916 11 68 3.2 4.8 0.00 0.41 0.25 91 1009.9
20260505204916 11 68 6.4 11.3 0.00 0.41 0.25 91 1009.9
20260505203936 11 68 3.2 4.8 0.00 0.41 0.25 91 1009.8
20260505202916 11 68 6.4 11.3 0.00 0.41 0.25 91 1009.8
20260505201916 11 90 6.4 9.7 0.00 0.41 0.25 91 1009.7
20260505200916 11 45 6.4 9.7 0.00 0.41 0.25 91 1009.8
20260505195916 11 68 11.3 17.7 0.00 0.41 0.25 92 1009.7
20260505194916 11 68 4.8 9.7 0.00 0.41 0.25 92 1009.7
20260505193956 11 68 4.8 8.0 0.00 0.41 0.25 92 1009.7
20260505192916 11 45 9.7 14.5 0.00 0.41 0.25 92 1009.7
20260505191916 11 45 4.8 9.7 0.00 0.41 0.25 92 1009.8
20260505190916 11 68 3.2 6.4 0.00 0.41 0.25 93 1009.8
20260505185916 12 45 4.8 6.4 0.00 0.41 0.25 92 1009.8
20260505184916 12 45 3.2 6.4 0.00 0.41 0.25 92 1009.6
20260505183916 12 68 6.4 11.3 0.00 0.41 0.25 92 1009.6
20260505182916 12 68 4.8 8.0 0.00 0.41 0.25 92 1009.7
20260505181916 12 45 3.2 8.0 0.00 0.41 0.25 92 1009.7
20260505180916 12 68 6.4 9.7 0.00 0.41 0.25 92 1009.6
20260505175916 12 68 3.2 4.8 0.00 0.41 0.25 92 1009.7
20260505174916 12 68 1.6 3.2 0.00 0.41 0.25 92 1009.7
20260505173916 12 90 3.2 6.4 0.00 0.41 0.25 92 1009.7
20260505172916 12 68 1.6 3.2 0.00 0.41 0.25 92 1009.9
20260505171936 12 45 4.8 8.0 0.00 0.41 0.25 92 1009.9
20260505170916 12 45 4.8 6.4 0.00 0.41 0.25 92 1009.9
20260505165916 12 23 4.8 6.4 0.00 0.41 0.25 92 1010.0